Regional Weather Roundup
Issued by NWS

Home | Current Version | Previous Version | Graphics & Text | Print | Product List | Glossary On
Versions: 1 2 3 4 5 6 7 8 9 10 11 12 13 14 15 16 17 18 19 20 21 22 23 24 25 26 27 28 29 30 31 32 33 34 35 36 37 38 39 40 41 42 43 44 45 46 47 48 49 50
000
ASUS43 KDTX 031010
RWRMI
MICHIGAN HOURLY REGIONAL WEATHER ROUNDUP
NATIONAL WEATHER SERVICE DETROIT/PONTIAC MI
600 AM EDT FRI JUL 03 2015

NOTE: "FAIR" INDICATES FEW OR NO CLOUDS BELOW 12,000 FEET WITH NO
SIGNIFICANT WEATHER AND/OR OBSTRUCTION TO VISIBILITY.

MIZ047>049-052>055-059>063-066>070-074>076-081>083-031100-
SOUTHEAST LOWER MICHIGAN

CITY           SKY/WX    TMP DP  RH WIND       PRES   REMARKS
ADRIAN         PTCLDY    53  50  89 N3        30.00R
ALMA           CLEAR     46  46  99 CALM      30.01S FOG
ANN ARBOR      PTCLDY    49  48  97 CALM      29.99S
BAD AXE        CLEAR     40  38  95 CALM      30.03S
CARO             N/A     41  41  99 CALM      30.00F FOG
DETROIT CITY   CLEAR     53  48  83 N5        29.99F
DETROIT        MOCLDY    53  49  86 N3        30.00S
FLINT          CLEAR     50  47  89 CALM      30.01S
GROSSE ILE     PTCLDY    55  50  82 CALM      29.98S
HILLSDALE      PTCLDY    53  52  97 E5        29.99S
HOWELL         CLEAR     48  47  97 CALM      30.00S

CITY           SKY/WX    TMP DP  RH WIND       PRES   REMARKS
JACKSON        PTCLDY    52  50  93 CALM      29.99S
LAMBERTVILLE   PTCLDY    56  51  82 NE3       29.98S
LANSING        CLEAR     50  47  89 CALM      30.01R
LAPEER           N/A     41  40  97 CALM      30.01S FOG
MASON          PTCLDY    47  46  95 CALM      30.00R
MONROE         PTCLDY    54  51  89 CALM      29.98S
MT. CLEMENS    CLEAR     49  48  95 N3        29.98S
PONTIAC        MOCLDY    50  47  89 CALM      29.99F
PORT HOPE        N/A     47  42  83 SW6       30.00F
PORT HURON     CLEAR     46  46 100 CALM      30.00F FOG
TRI CITIES     CLEAR     51  46  83 CALM      30.02R
MIDLAND        FAIR      43  41  95 CALM      30.01S
TROY           CLEAR     53  49  86 NE3       30.02S
SAGINAW HB     CLEAR     45  45 100 CALM      30.01S
$$
MIZ043>046-050>051-056>058-064>065-071>073-077>080-031100-
SOUTHWEST LOWER MICHIGAN

CITY           SKY/WX    TMP DP  RH WIND       PRES   REMARKS
BATTLE CREEK   PTCLDY    55  50  83 CALM      29.99S
BENTON HARBOR  MOCLDY    53  50  89 CALM      29.97S
BIG RAPIDS     CLEAR     47  44  89 W3        30.01S
COLDWATER      PTCLDY    53  52  97 CALM      29.98S
FREMONT        FAIR      50  49  96 E3        30.00S
HOLLAND        PTCLDY    53  48  83 CALM      29.99S
GRAND RAPIDS   PTCLDY    50  48  93 NE5       30.00S
IONIA          FAIR      49  49  99 CALM      30.00R
KALAMAZOO      PTCLDY    53  50  89 CALM      29.99S
LUDINGTON      CLEAR     51  49  93 CALM      30.00S
MARSHALL       PTCLDY    51  50  96 CALM      29.98S
MOUNT PLEASANT FOG       45  44  97 CALM      30.01S VSB 1/2
MUSKEGON       PTCLDY    52  48  86 CALM      30.00S
SOUTH HAVEN    MOCLDY    53  49  86 CALM      29.97F
$$
MIZ016>042-031100-
NORTHERN LOWER MICHIGAN

CITY           SKY/WX    TMP DP  RH WIND       PRES   REMARKS
ALPENA         CLEAR     50  42  74 SW5       30.01R
BEAVER ISLAND  CLOUDY    58  49  71 SW8       29.97F
BELLAIRE       MOCLDY    47  46  96 CALM      30.01R FOG
CADILLAC       CLEAR     44  42  95 CALM      30.01F
CHARLEVOIX     CLOUDY    58  50  74 S6        30.02S
FRANKFORT      CLEAR     53  46  78 CALM      30.00S
GAYLORD        CLEAR     52  45  77 SW3       30.01S
GRAYLING       CLEAR     40  38  95 CALM      30.02S
HARBOR SPRINGS CLOUDY    58  50  76 CALM      29.99S
HOUGHTON LAKE  CLEAR     43  42  97 CALM      30.02S
MANISTEE       CLEAR     46  43  87 CALM      30.01R
OSCODA         CLEAR     42  39  91 CALM      30.01S
PELLSTON       CLOUDY    57  50  77 CALM      29.99R
ROGERS CITY    CLEAR     54  46  76 SW7       30.00R
TRAVERSE CITY  CLEAR     52  47  83 CALM      29.99S
$$
MIZ007>008-015-031100-
EASTERN UPPER MICHIGAN

CITY           SKY/WX    TMP DP  RH WIND       PRES   REMARKS
KINROSS        CLOUDY    55  52  88 SW6       29.95F
MACKINAC ISLAN CLOUDY    60  51  73 SW10      29.97S
NEWBERRY       CLOUDY    57  45  64 SW13      29.94F
S. S. MARIE    CLOUDY    55  49  80 CALM      29.94F
MUNISING         N/A     62  47  57 S10       29.92S
$$
MIZ004>006-011>014-085-031100-
CENTRAL UPPER MICHIGAN

CITY           SKY/WX    TMP DP  RH WIND       PRES   REMARKS
MANISTIQUE     CLEAR     55  50  84 SW5       29.96S
ESCANABA       CLEAR     54  48  82 W3        29.96S
MENOMINEE      CLEAR     52  46  82 W3        29.98S
SAWYER-GWINN   PTCLDY    58  50  73 W12       29.94S
$$
MIZ001>003-009>011-084-031100-
WESTERN UPPER MICHIGAN

CITY           SKY/WX    TMP DP  RH WIND       PRES   REMARKS
IRON MOUNTAIN  CLEAR     52  47  83 CALM      29.96S
HOUGHTON       CLOUDY    67  52  58 W16G23    29.87F
COPPER HARBOR    N/A     57  49  74 N22G28    29.87R
IRONWOOD       CLEAR     61  54  77 SW9       29.92R
$$

ABBREVIATIONS USED IN REMARKS
   TC - TEMPERATURE IN CELSIUS
  WCI - WIND CHILL INDEX
   HX - HEAT INDEX
  VSB - VISIBILITY




USA.gov is the U.S. government's official web portal to all federal, state and local government web resources and services.